Theta_e
341 343 342 341 340 340 339 337 339 340 337 335 335 335 335 335 336 339 336 330 329 332 332 330 329 332 323 323 324 323 322 322 319 322 325 330 334 333 334 339 338 340 338
332 333 334 335 336 337 336 336 337 337 336 333 332 332 331 331 333 331 328 327 327 328 328 329 327 324 329 329 325 325 322 324 321 320 324 324 327 332 336 338 337 332 336
328 330 332 332 333 334 334 334 333 333 332 332 330 329 328 327 327 328 328 327 328 329 328 328 328 328 327 325 325 324 322 322 322 320 320 322 323 325 328 333 333 336 333
322 324 325 325 326 327 327 327 328 328 327 327 328 327 327 326 326 326 326 329 329 329 329 329 328 327 327 327 325 326 325 323 322 319 318 318 319 324 325 325 325 331 330
317 318 319 319 321 320 320 322 323 323 323 323 323 323 323 324 322 326 327 327 327 327 328 328 328 326 322 323 324 324 324 321 318 314 312 312 314 317 319 322 321 326 329
313 312 313 314 315 317 317 318 319 318 319 319 318 318 321 319 309 305 310 318 322 322 322 324 325 322 321 313 313 312 317 320 317 312 310 310 314 317 320 321 323 321 318
312 312 312 312 312 313 314 314 315 318 319 316 316 316 318 320 306 303 304 314 316 317 319 320 320 317 317 321 315 310 309 307 309 316 314 314 316 320 320 319 320 322 321
311 311 311 311 310 311 311 311 315 315 316 315 314 315 315 313 302 300 301 311 313 314 315 315 316 317 318 318 319 318 318 318 315 313 314 318 320 321 322 322 322 323 326
310 310 310 309 309 308 308 310 312 312 313 312 312 312 313 313 302 298 299 307 308 309 310 311 309 307 303 299 309 313 315 315 311 305 304 302 300 301 305 316 317 315 315
308 308 308 308 307 307 308 309 309 309 309 309 309 310 307 307 300 296 296 298 298 299 302 305 303 303 299 297 302 307 310 312 315 315 315 313 307 315 305 315 321 313 314
307 307 307 307 307 308 308 309 308 307 305 304 303 304 303 302 299 295 296 299 301 301 301 304 306 299 296 295 296 304 308 309 308 310 314 314 315 318 320 323 323 317 316
306 305 305 306 306 306 305 305 304 302 300 297 298 299 298 299 298 296 295 295 297 297 298 302 304 298 296 296 298 298 296 299 309 309 309 310 312 315 319 321 324 325 325
304 304 304 303 301 301 299 298 297 299 296 294 294 294 295 298 298 296 294 294 295 297 299 299 296 295 295 296 295 296 295 303 304 306 307 308 311 319 316 319 321 323 324
301 299 298 297 297 294 294 295 293 293 293 294 294 294 295 296 296 297 298 300 297 299 298 296 296 297 297 300 300 301 302 305 307 306 307 310 314 312 313 315 315 315 313
294 294 293 291 291 292 292 293 292 295 295 294 293 293 292 292 294 294 293 294 295 294 292 293 295 302 304 304 305 305 306 307 309 309 307 311 310 311 311 313 313 313 311
288 288 289 289 289 290 290 291 293 292 292 291 291 291 293 292 291 291 291 291 290 290 291 291 294 301 301 303 303 304 309 306 309 308 312 311 311 311 310 312 314 313 313
286 287 288 288 289 289 290 291 291 294 294 293 292 291 291 291 291 290 290 290 289 289 290 292 296 300 301 303 304 306 303 306 313 313 312 311 312 312 309 313 315 317 317
287 288 288 289 290 291 292 292 293 292 292 295 294 293 292 291 291 290 290 289 290 290 291 293 296 300 302 302 305 304 305 310 311 311 311 312 312 315 314 315 316 317 317
288 289 290 290 291 291 291 291 292 292 292 292 293 291 292 291 290 290 290 291 292 293 295 295 299 301 302 303 303 307 309 311 311 310 312 312 313 315 316 317 314 303 309
289 289 289 290 291 291 290 290 290 291 291 289 289 289 290 289 291 293 295 294 294 294 296 297 301 303 303 304 305 309 309 309 311 311 312 313 313 315 315 315 319 317 319
288 290 287 289 289 288 288 287 289 289 288 287 288 289 286 287 291 293 294 294 294 295 296 298 301 302 303 306 305 309 309 311 313 312 312 311 310 309 311 320 314 318 321
290 291 289 287 287 286 285 286 286 286 287 287 287 287 286 288 289 291 294 295 296 296 297 298 301 303 305 307 307 310 310 311 310 312 311 311 311 313 320 319 321 318 318
289 290 290 288 287 286 286 286 285 285 285 286 286 286 286 286 287 288 290 295 297 298 299 300 301 303 305 306 310 310 310 311 312 314 315 316 317 320 318 320 318 317 319
287 288 287 286 285 286 285 285 285 284 284 284 284 285 285 285 286 287 289 290 294 298 301 301 303 304 304 305 309 309 311 312 310 308 310 313 317 316 319 319 316 318 317
284 287 288 288 287 286 286 286 285 285 284 284 284 284 285 285 285 286 287 289 291 295 299 300 301 304 305 304 306 304 292 289 301 292 311 314 317 321 320 316 319 319 317
284 287 288 288 288 287 285 285 285 285 285 286 286 285 285 285 285 285 286 287 289 291 296 300 301 302 305 306 306 292 289 290 299 288 301 310 316 320 317 317 319 315 315
Wind_Speed
8 7 6 6 8 9 9 8 7 5 4 7 7 8 9 10 10 8 9 10 10 10 11 11 11 11 10 10 10 10 11 11 13 10 10 11 13 13 14 12 11 12 12
7 6 5 6 6 5 4 5 5 5 5 5 7 9 10 12 11 12 13 14 14 13 13 13 14 11 13 12 11 13 13 12 12 16 12 11 16 15 12 13 10 11 12
11 9 10 9 8 7 5 5 3 4 6 7 9 10 12 13 13 13 15 15 15 16 16 15 15 15 15 12 13 12 11 10 11 12 11 11 12 13 13 12 11 11 8
7 7 6 5 5 4 3 4 5 6 8 9 11 12 14 15 16 16 17 15 16 16 17 18 18 17 17 16 15 14 12 12 13 12 12 10 11 11 12 11 10 10 9
8 6 5 3 4 4 5 6 7 8 10 11 13 14 15 15 14 17 17 18 19 20 19 18 18 19 22 19 13 14 14 13 11 11 11 11 11 11 11 10 13 11 11
6 3 4 7 7 7 9 9 10 11 12 13 15 16 16 14 14 8 8 14 16 18 17 18 18 20 20 18 20 21 19 16 15 12 13 14 15 14 12 11 11 10 13
6 7 6 7 9 8 10 11 12 11 12 14 15 17 16 16 14 14 13 15 17 17 18 18 18 18 19 21 21 24 23 20 20 15 15 14 15 14 15 15 14 12 12
9 9 10 11 12 12 13 14 12 12 13 12 14 15 15 15 12 13 13 16 16 18 18 19 20 20 19 19 21 21 17 19 17 14 16 15 13 12 15 15 14 13 10
12 12 12 12 13 14 14 14 13 13 13 14 15 17 17 16 11 5 7 13 14 16 15 16 15 15 17 16 17 20 19 18 13 17 15 12 15 16 16 12 13 11 8
13 13 13 14 14 15 15 16 14 14 16 14 15 14 15 14 12 17 16 9 12 12 16 19 22 21 18 17 15 14 15 14 14 13 11 11 11 12 17 14 12 9 5
14 14 14 14 15 15 15 14 13 12 13 13 15 14 17 15 14 19 18 12 11 11 11 11 10 11 13 13 16 15 15 12 12 10 13 13 11 12 12 10 11 10 9
14 15 15 15 12 12 14 12 12 12 13 14 14 13 11 13 11 11 12 11 12 9 11 12 13 13 9 9 8 11 10 8 13 13 13 13 11 13 10 11 13 12 10
15 15 14 15 13 12 13 13 11 11 9 10 10 11 12 11 10 12 15 16 16 11 9 10 19 17 16 9 15 13 10 6 9 12 13 13 13 12 8 10 12 14 12
15 15 13 12 13 13 9 9 9 9 10 10 10 11 11 12 10 10 9 7 6 8 5 8 15 19 17 14 11 11 9 11 11 13 13 11 8 4 5 8 6 6 3
14 13 13 9 10 11 9 9 10 11 9 9 9 9 10 11 12 10 9 9 8 9 11 9 9 10 9 9 9 9 9 8 9 9 10 9 4 4 2 2 2 5 8
11 8 8 8 8 8 8 10 11 15 19 20 21 17 12 18 23 25 23 20 18 15 8 8 9 11 8 8 6 10 6 8 9 8 8 2 5 2 1 2 5 7 9
10 10 8 9 8 8 8 8 10 9 14 16 17 16 18 19 23 24 24 16 13 10 7 8 9 11 9 6 5 4 3 8 7 7 5 4 2 5 7 10 11 9 9
10 15 8 7 7 7 7 7 7 8 9 9 8 8 12 13 16 14 10 6 5 6 7 8 9 10 7 5 4 6 6 8 4 6 7 3 5 8 10 9 6 7 9
8 6 7 7 6 7 6 6 6 8 8 8 9 8 11 15 19 10 6 4 4 6 7 8 9 10 6 5 5 6 5 4 4 6 4 2 6 5 7 7 5 14 10
6 9 7 7 5 6 6 7 7 7 7 7 7 8 9 10 8 6 5 4 4 5 5 7 8 7 5 7 2 3 3 3 3 4 3 4 5 9 10 11 13 12 11
4 6 6 6 6 7 7 7 7 8 7 8 8 8 12 9 9 7 5 5 4 5 5 7 9 6 5 7 2 4 4 5 1 2 4 2 8 9 12 5 10 5 4
6 6 6 7 7 7 7 6 7 8 8 8 8 8 12 7 8 9 6 5 4 4 5 6 8 8 4 7 7 3 6 2 1 4 3 6 8 14 11 4 2 1 4
7 8 9 9 9 8 7 7 7 8 8 8 9 9 9 8 8 9 9 7 6 5 5 5 6 6 4 7 4 5 3 3 4 2 5 8 10 12 4 2 2 2 5
8 9 11 9 8 9 9 8 8 10 9 9 9 9 9 9 9 10 9 9 9 6 7 3 6 7 7 9 6 6 4 5 6 7 10 6 5 6 4 3 1 5 7
8 9 10 10 9 10 9 9 9 9 9 9 9 9 9 9 10 10 9 9 8 9 7 8 6 9 7 10 12 9 7 8 8 8 8 9 7 7 6 5 2 8 7
9 9 11 10 9 9 10 10 10 11 11 10 9 8 10 10 10 10 10 10 9 9 11 6 7 13 12 11 10 7 6 6 7 7 8 8 7 7 4 5 8 4 5
Wind_Direction
127 146 157 163 145 156 154 174 144 144 193 167 195 205 215 222 225 229 246 271 267 230 232 256 258 254 261 269 268 269 272 277 281 285 292 308 310 310 297 288 286 291 277
90 104 109 116 120 118 140 148 148 181 208 234 231 228 233 236 233 229 239 251 253 249 246 247 254 260 254 247 254 261 267 277 286 288 286 281 269 270 272 278 268 282 294
28 64 41 32 47 43 28 20 339 275 260 259 261 257 261 258 254 246 244 245 244 245 250 255 249 243 247 249 258 270 277 278 277 280 292 299 292 288 287 272 269 267 271
61 64 61 47 42 26 0 307 285 278 278 274 268 267 271 272 270 266 264 262 257 250 247 246 247 249 252 249 250 250 254 260 264 266 269 280 287 285 277 280 277 266 276
23 28 25 8 357 340 328 317 303 299 289 282 276 275 270 266 261 258 258 257 258 261 266 267 258 247 243 245 251 247 248 251 256 271 279 285 287 287 294 310 304 301 309
22 346 330 318 324 322 310 299 287 283 284 286 282 279 279 277 286 310 292 290 286 282 275 265 260 261 261 244 234 235 241 249 254 267 275 278 287 288 284 272 282 291 283
326 311 298 290 287 287 293 290 285 286 286 281 281 280 278 278 278 284 291 289 283 275 273 272 272 270 268 266 244 227 221 220 228 242 252 260 271 280 285 284 284 279 274
312 307 309 307 307 307 303 298 298 290 283 281 279 278 279 279 280 278 275 280 278 276 275 275 277 277 276 282 277 273 249 236 223 230 242 247 262 264 269 272 277 285 280
311 311 312 315 308 299 295 295 292 291 290 289 287 287 285 284 296 28 345 301 287 282 278 287 294 294 296 308 297 267 265 258 239 205 223 241 258 260 260 274 271 278 254
309 312 311 305 300 298 297 299 299 293 290 291 294 300 304 309 322 321 309 293 279 275 275 265 256 253 266 269 273 276 265 259 254 266 276 258 235 263 245 247 252 245 229
309 303 300 301 299 295 292 293 301 308 302 300 299 299 291 284 289 279 274 270 270 277 282 280 276 253 252 266 264 261 255 241 255 269 264 261 268 274 263 235 226 198 218
304 302 300 300 301 310 313 305 304 305 301 291 282 285 289 290 283 299 292 275 275 276 280 286 283 284 259 269 277 279 268 254 256 259 265 268 269 265 245 239 218 223 234
300 300 305 317 311 307 313 305 288 284 294 290 281 287 291 291 278 261 249 263 267 256 268 299 302 295 281 256 256 249 259 246 241 248 256 260 255 258 215 227 237 227 211
309 312 311 307 318 307 289 297 301 286 281 283 290 293 294 297 297 293 295 293 316 279 288 316 302 284 281 266 279 237 229 237 245 254 259 265 266 170 202 206 186 172 179
312 309 308 298 287 298 289 294 286 282 282 285 281 283 288 288 290 297 290 291 292 289 311 300 296 281 257 269 251 256 252 246 240 245 249 247 176 178 179 86 75 168 206
300 292 292 297 297 292 290 289 271 258 270 269 265 259 274 269 278 279 276 269 266 271 275 271 274 276 283 269 269 271 234 244 235 231 231 172 190 165 165 248 237 223 214
289 293 296 294 290 292 291 291 299 291 259 264 262 262 263 265 275 277 276 264 250 249 249 254 261 268 277 282 286 267 263 275 249 228 165 186 209 216 222 220 201 197 204
291 291 287 287 283 283 285 295 298 304 308 316 329 313 305 307 311 305 302 265 246 222 239 245 254 264 282 296 324 286 257 259 215 191 158 193 235 235 221 224 209 200 214
300 298 304 301 299 304 303 307 313 312 320 326 327 329 329 332 314 296 308 252 255 246 239 238 242 261 286 293 272 264 245 268 207 181 116 194 277 285 287 258 197 251 219
308 311 303 310 316 330 330 333 327 331 334 329 327 327 329 327 324 333 327 292 275 274 274 254 252 266 282 282 286 203 238 220 245 162 154 224 255 274 253 261 251 186 138
324 319 2 359 359 353 353 342 336 341 341 330 326 324 323 318 330 328 326 331 318 297 271 278 281 273 276 280 233 202 239 252 96 142 211 193 264 274 276 201 241 242 170
340 21 26 13 8 8 359 353 351 348 341 334 332 334 335 338 338 334 332 337 325 283 279 314 310 299 289 292 331 191 214 200 163 136 179 237 242 252 253 107 125 88 112
23 21 28 24 15 12 14 7 359 352 347 344 341 341 345 344 341 339 337 336 329 314 331 298 312 293 330 324 315 336 302 87 15 309 214 214 230 247 318 100 307 103 116
18 42 40 32 22 19 15 8 5 2 356 353 351 348 346 343 340 338 339 335 329 324 302 276 293 318 328 319 321 334 357 55 12 13 355 341 303 300 269 358 240 116 103
29 25 37 31 30 20 17 14 11 7 6 2 357 353 350 348 346 345 343 336 333 327 320 322 268 279 288 312 308 67 35 29 35 357 340 338 324 298 302 312 221 124 143
32 29 44 33 25 25 17 12 10 7 6 2 1 358 353 355 353 349 345 341 340 335 336 312 313 310 268 267 274 118 90 39 3 1 322 309 306 286 303 254 157 141 138